User: anonymous   Login
Location: Coffee Creek Observatory
(38.8077°N, 94.7179°W)
Time: 01:20:03
(UTC-05:00)
Language:

Lacrosse 4 Rocket - Orbit

View from above orbital plane
View from above orbital plane
View from above satellite
View from above satellite

Ground track
Ground track

The orbit data is extracted from the following two-line orbital elements,

1 26474U 00047B   15212.70213496  .00000550  00000-0  60194-4 0  9991
2 26474 067.9954 299.4857 0058573 352.5634 007.4632 14.94591827812761
Epoch (UTC): 31 July 2015 16:51:04
Eccentricity: 0.0058573
inclination: 67.9954°
perigee height: 543 km
apogee height: 624 km
right ascension of ascending node: 299.4857°
argument of perigee: 352.5634°
revolutions per day: 14.94591827
mean anomaly at epoch: 7.4632°
orbit number at epoch: 81276

The dashed part of the orbit path shows where the satellite is in the earth's shadow,  

DLR